Greenville/Spartanburg, SC

12:50 AM EDT on June 27, 2017 (GMT -0400)
Greenville-Spartanburg International

Weather History for KGSP - November, 2011

Change the Weather History Date:

Thursday, November 3, 2011

  Actual Average Record
Temperature  
Mean Temperature 51 °F 56 °F  
Max Temperature 67 °F 68 °F 85 °F (1974)
Min Temperature 35 °F 45 °F 19 °F (1954)
Degree Days  
Heating Degree Days 14 9  
Month to date heating degree days 43 27  
Since 1 July heating degree days 226 197  
Cooling Degree Days 0 0  
Month to date cooling degree days 0 0  
Year to date cooling degree days 2047 1710  
Moisture  
Dew Point 45 °F    
Average Humidity 72    
Maximum Humidity 100    
Minimum Humidity 44    
Precipitation  
Precipitation 0.61 in 0.11 in 2.60 in (1948)
Month to date precipitation 0.61 0.33  
Year to date precipitation 38.21 39.71  
Snow  
Snow 0.00 in 0.00 in 0.00 in ()
Month to date snowfall 0.0 0.0  
Since 1 July snowfall 0.0 0.0  
Since 1 September snowfall 0.0 0.0  
Snow Depth 0.00 in    
Sea Level Pressure  
Sea Level Pressure 30.02 in    
Wind  
Wind Speed 5 mph (SE)    
Max Wind Speed 15 mph    
Max Gust Speed 20 mph    
Visibility 8 miles    
Events Rain    
T = Trace of Precipitation, MM = Missing Value Source: NWS Daily Summary

Daily Weather History Graph

Daily Weather History Graph

Search for Another Location

Airport or City:

Trip Planner

Search our weather history database for the weather conditions in past years. The results will help you decide how hot, cold, wet, or windy it might be!

Date:

Astronomy

Nov. 03, 2011 Rise Set
Actual Time 7:51 AM EDT 6:33 PM EDT
Civil Twilight 7:25 AM EDT 6:59 PM EDT
Nautical Twilight 6:55 AM EDT 7:29 PM EDT
Astronomical Twilight 6:25 AM EDT 7:58 PM EDT
Moon 2:42 PM EDT (11/3) 1:18 AM EDT (11/3)
Length of Visible Light 11h 34m
Length of Day
10h 41m
First Quarter, 60% of the Moon is Illuminated
Nov 3
First Quarter
Nov 10
Full
Nov 18
Last Quarter
Nov 25
New
Dec 2
First Quarter

Hourly Weather History & Observations

Time (EDT) Temp. Windchill Dew Point Humidity Pressure Visibility Wind Dir Wind Speed Gust Speed Precip Events Conditions
12:53 AM 42.1 °F - 37.9 °F 85% 30.27 in 10.0 mi Calm Calm - N/A   Clear
1:53 AM 39.9 °F - 37.0 °F 89% 30.25 in 10.0 mi Calm Calm - N/A   Clear
2:53 AM 39.0 °F - 36.0 °F 89% 30.23 in 10.0 mi Calm Calm - N/A   Clear
3:53 AM 39.0 °F - 36.0 °F 89% 30.22 in 10.0 mi Calm Calm - N/A   Clear
4:53 AM 37.0 °F - 35.1 °F 93% 30.20 in 9.0 mi Calm Calm - N/A   Clear
5:53 AM 37.0 °F - 35.1 °F 93% 30.20 in 10.0 mi Calm Calm - N/A   Clear
6:53 AM 36.0 °F - 34.0 °F 93% 30.20 in 10.0 mi Calm Calm - N/A   Clear
7:53 AM 37.0 °F 34.5 °F 35.1 °F 93% 30.19 in 10.0 mi South 3.5 mph - N/A   Clear
8:53 AM 37.9 °F - 37.0 °F 97% 30.18 in 10.0 mi Calm Calm - N/A   Clear
9:53 AM 51.1 °F - 42.1 °F 71% 30.17 in 10.0 mi SW 3.5 mph - N/A   Clear
10:53 AM 55.9 °F - 42.1 °F 60% 30.16 in 10.0 mi SW 4.6 mph - N/A   Partly Cloudy
11:53 AM 57.9 °F - 39.9 °F 51% 30.14 in 10.0 mi SSW 6.9 mph - N/A   Overcast
12:53 PM 60.1 °F - 41.0 °F 49% 30.09 in 10.0 mi South 8.1 mph - N/A   Mostly Cloudy
1:53 PM 64.0 °F - 44.1 °F 48% 30.04 in 10.0 mi South 9.2 mph - N/A   Mostly Cloudy
2:53 PM 64.9 °F - 43.0 °F 45% 29.97 in 10.0 mi South 9.2 mph - N/A   Clear
3:53 PM 64.9 °F - 45.0 °F 48% 29.94 in 10.0 mi SSE 13.8 mph 19.6 mph N/A   Scattered Clouds
4:53 PM 64.9 °F - 46.0 °F 50% 29.91 in 10.0 mi SSE 13.8 mph 17.3 mph N/A   Mostly Cloudy
5:53 PM 64.9 °F - 46.9 °F 52% 29.88 in 10.0 mi South 6.9 mph - N/A   Overcast
6:53 PM 57.0 °F - 55.0 °F 93% 29.85 in 10.0 mi ESE 6.9 mph - 0.00 in   Overcast
7:53 PM 59.0 °F - 52.0 °F 78% 29.82 in 10.0 mi East 10.4 mph - N/A   Overcast
8:53 PM 55.9 °F - 54.0 °F 93% 29.84 in 3.0 mi East 4.6 mph - 0.19 in Rain Heavy Rain
9:09 PM 55.4 °F - 55.4 °F 100% 29.84 in 3.0 mi East 3.5 mph - 0.06 in Rain Rain
9:17 PM 55.4 °F - 53.6 °F 94% 29.84 in 4.0 mi NE 3.5 mph - 0.08 in Rain Rain
9:53 PM 55.9 °F - 55.0 °F 97% 29.82 in 4.0 mi NNE 3.5 mph - 0.16 in Rain Rain
10:48 PM 55.4 °F - 55.4 °F 100% 29.84 in 4.0 mi WNW 11.5 mph - 0.16 in Rain Rain
10:53 PM 55.9 °F - 54.0 °F 93% 29.83 in 4.0 mi NNW 6.9 mph - 0.17 in Rain Rain
11:14 PM 55.4 °F - 55.4 °F 100% 29.80 in 6.0 mi East 8.1 mph - 0.07 in Rain Light Rain
11:53 PM 55.0 °F - 54.0 °F 96% 29.76 in 10.0 mi ENE 6.9 mph - 0.09 in   Overcast